Terminal Aerodrome Forecast
Issued by NWS Des Moines, IA

Home | Current Version | Previous Version | Text Only | Print | Product List | Glossary On
Versions: 1 2 3 4 5 6 7 8 9 10 11 12 13 14 15 16 17 18 19 20 21 22 23 24 25 26 27 28 29 30 31 32 33 34 35 36 37 38 39
000
FTUS43 KDMX 292113 AAA
TAFDSM
TAF AMD
KDSM 292113Z 2921/3018 34019G28KT P6SM OVC028
     FM300300 33011KT P6SM SCT028
     FM301200 VRB04KT P6SM SCT150=

USA.gov is the U.S. government's official web portal to all federal, state and local government web resources and services.